| time (UTC) | temp F | wind direction | speed MPH | gust MPH | rain 1hr in | rain 24hr in | rain mn in | humidity % | barometer mb |
| 20260505041351 | 46 | 28 | 19.0 | 27.0 | 0.00 | 0.00 | 0.00 | 47 | 1231.9 |
| 20260505040351 | 46 | 34 | 17.0 | 21.0 | 0.00 | 0.00 | 0.00 | 46 | 1231.9 |
| 20260505035350 | 46 | 36 | 18.0 | 25.0 | 0.00 | 0.00 | 0.00 | 45 | 1231.9 |
| 20260505034349 | 47 | 31 | 19.0 | 26.0 | 0.00 | 0.00 | 0.00 | 43 | 1231.9 |
| 20260505033349 | 47 | 33 | 17.0 | 23.0 | 0.00 | 0.00 | 0.00 | 42 | 1231.9 |
| 20260505032348 | 48 | 31 | 18.0 | 24.0 | 0.00 | 0.00 | 0.00 | 41 | 1231.9 |
| 20260505031347 | 48 | 33 | 18.0 | 23.0 | 0.00 | 0.00 | 0.00 | 40 | 1231.9 |
| 20260505030347 | 48 | 30 | 15.0 | 20.0 | 0.00 | 0.00 | 0.00 | 40 | 1231.9 |
| 20260505025346 | 48 | 29 | 15.0 | 22.0 | 0.00 | 0.00 | 0.00 | 40 | 1231.9 |
| 20260505024346 | 49 | 29 | 17.0 | 23.0 | 0.00 | 0.00 | 0.00 | 39 | 1231.9 |
| 20260505023345 | 49 | 29 | 19.0 | 25.0 | 0.00 | 0.00 | 0.00 | 39 | 1231.9 |
| 20260505022345 | 49 | 31 | 21.0 | 26.0 | 0.00 | 0.00 | 0.00 | 38 | 1231.9 |
| 20260505021344 | 49 | 23 | 21.0 | 29.0 | 0.00 | 0.00 | 0.00 | 38 | 1231.9 |
| 20260505020343 | 50 | 26 | 20.0 | 28.0 | 0.00 | 0.00 | 0.00 | 37 | 1231.9 |
| 20260505015343 | 51 | 26 | 20.0 | 26.0 | 0.00 | 0.00 | 0.00 | 36 | 1231.9 |
| 20260505014342 | 51 | 30 | 20.0 | 26.0 | 0.00 | 0.00 | 0.00 | 36 | 1231.9 |
| 20260505013341 | 52 | 31 | 23.0 | 27.0 | 0.00 | 0.00 | 0.00 | 35 | 1231.9 |
| 20260505012341 | 53 | 30 | 23.0 | 29.0 | 0.00 | 0.00 | 0.00 | 34 | 1231.9 |
| 20260505011340 | 54 | 33 | 22.0 | 27.0 | 0.00 | 0.00 | 0.00 | 34 | 1231.9 |
| 20260505010340 | 54 | 33 | 23.0 | 27.0 | 0.00 | 0.00 | 0.00 | 34 | 1231.9 |
| 20260505005339 | 54 | 23 | 23.0 | 29.0 | 0.00 | 0.00 | 0.00 | 34 | 1231.9 |
| 20260505004338 | 54 | 27 | 24.0 | 30.0 | 0.00 | 0.00 | 0.00 | 33 | 1231.9 |
| 20260505003338 | 55 | 25 | 23.0 | 27.0 | 0.00 | 0.00 | 0.00 | 33 | 1231.9 |
| 20260505002337 | 56 | 25 | 23.0 | 28.0 | 0.00 | 0.00 | 0.00 | 33 | 1231.9 |
| 20260505001336 | 57 | 22 | 22.0 | 27.0 | 0.00 | 0.00 | 0.00 | 32 | 1231.9 |
| 20260505000336 | 58 | 25 | 20.0 | 25.0 | 0.00 | 0.00 | 0.00 | 32 | 1231.9 |
| 20260504235335 | 58 | 27 | 21.0 | 26.0 | 0.00 | 0.00 | 0.00 | 32 | 1231.9 |
| 20260504234335 | 59 | 21 | 19.0 | 25.0 | 0.00 | 0.00 | 0.00 | 32 | 1231.9 |
| 20260504233334 | 61 | 16 | 18.0 | 26.0 | 0.00 | 0.00 | 0.00 | 32 | 1231.9 |
| 20260504232333 | 61 | 21 | 18.0 | 25.0 | 0.00 | 0.00 | 0.00 | 32 | 1231.9 |
| 20260504231333 | 64 | 20 | 18.0 | 25.0 | 0.00 | 0.00 | 0.00 | 32 | 1231.9 |
| 20260504230332 | 64 | 19 | 17.0 | 26.0 | 0.00 | 0.00 | 0.00 | 32 | 1231.9 |
| 20260504225331 | 65 | 23 | 16.0 | 23.0 | 0.00 | 0.00 | 0.00 | 31 | 1231.9 |
| 20260504224331 | 65 | 17 | 13.0 | 19.0 | 0.00 | 0.00 | 0.00 | 31 | 1231.9 |
| 20260504223330 | 65 | 15 | 11.0 | 17.0 | 0.00 | 0.00 | 0.00 | 31 | 1231.9 |
| 20260504222330 | 64 | 30 | 10.0 | 14.0 | 0.00 | 0.00 | 0.00 | 31 | 1231.9 |
| 20260504221329 | 63 | 7 | 10.0 | 14.0 | 0.00 | 0.00 | 0.00 | 32 | 1231.9 |
| 20260504220328 | 64 | 21 | 11.0 | 17.0 | 0.00 | 0.00 | 0.00 | 32 | 1231.9 |
| 20260504215328 | 64 | 17 | 11.0 | 17.0 | 0.00 | 0.00 | 0.00 | 32 | 1231.9 |
| 20260504214327 | 64 | 7 | 10.0 | 16.0 | 0.00 | 0.00 | 0.00 | 32 | 1231.9 |
| 20260504213327 | 64 | 21 | 9.0 | 15.0 | 0.00 | 0.00 | 0.00 | 32 | 1231.9 |
| 20260504212326 | 65 | 26 | 9.0 | 15.0 | 0.00 | 0.00 | 0.00 | 31 | 1231.9 |
| 20260504211326 | 65 | 10 | 10.0 | 15.0 | 0.00 | 0.00 | 0.00 | 31 | 1231.9 |
| 20260504210325 | 64 | 358 | 9.0 | 15.0 | 0.00 | 0.00 | 0.00 | 32 | 1231.9 |
| 20260504205325 | 64 | 26 | 7.0 | 13.0 | 0.00 | 0.00 | 0.00 | 33 | 1231.9 |
| 20260504204324 | 64 | 34 | 9.0 | 15.0 | 0.00 | 0.00 | 0.00 | 33 | 1231.9 |
| 20260504203323 | 63 | 24 | 9.0 | 17.0 | 0.00 | 0.00 | 0.00 | 33 | 1231.9 |
| 20260504202323 | 63 | 357 | 8.0 | 14.0 | 0.00 | 0.00 | 0.00 | 33 | 1231.9 |
| 20260504201322 | 62 | 9 | 9.0 | 13.0 | 0.00 | 0.00 | 0.00 | 34 | 1231.9 |
| 20260504200321 | 62 | 359 | 8.0 | 14.0 | 0.00 | 0.00 | 0.00 | 34 | 1231.9 |
| 20260504195321 | 62 | 6 | 8.0 | 14.0 | 0.00 | 0.00 | 0.00 | 34 | 1231.9 |
| 20260504194320 | 61 | 5 | 9.0 | 14.0 | 0.00 | 0.00 | 0.00 | 34 | 1231.9 |
| 20260504193320 | 61 | 10 | 10.0 | 16.0 | 0.00 | 0.00 | 0.00 | 34 | 1231.9 |
| 20260504192319 | 60 | 23 | 10.0 | 18.0 | 0.00 | 0.00 | 0.00 | 35 | 1231.9 |
| 20260504191319 | 60 | 27 | 9.0 | 17.0 | 0.00 | 0.00 | 0.00 | 35 | 1231.9 |
| 20260504190318 | 59 | 19 | 10.0 | 17.0 | 0.00 | 0.00 | 0.00 | 35 | 1231.9 |
| 20260504185317 | 59 | 14 | 10.0 | 14.0 | 0.00 | 0.00 | 0.00 | 36 | 1231.9 |
| 20260504184317 | 58 | 16 | 10.0 | 16.0 | 0.00 | 0.00 | 0.00 | 36 | 1231.9 |
| 20260504183316 | 58 | 29 | 9.0 | 16.0 | 0.00 | 0.00 | 0.00 | 36 | 1231.9 |
| 20260504182315 | 58 | 15 | 10.0 | 20.0 | 0.00 | 0.00 | 0.00 | 37 | 1231.9 |
| 20260504181315 | 57 | 17 | 10.0 | 17.0 | 0.00 | 0.00 | 0.00 | 37 | 1231.9 |
| 20260504180314 | 56 | 17 | 10.0 | 19.0 | 0.00 | 0.00 | 0.00 | 38 | 1231.9 |
| 20260504175314 | 56 | 24 | 12.0 | 20.0 | 0.00 | 0.00 | 0.00 | 38 | 1231.9 |
| 20260504174313 | 56 | 21 | 11.0 | 19.0 | 0.00 | 0.00 | 0.00 | 39 | 1231.9 |
| 20260504173313 | 56 | 21 | 11.0 | 16.0 | 0.00 | 0.00 | 0.00 | 39 | 1231.9 |
| 20260504172312 | 55 | 19 | 13.0 | 19.0 | 0.00 | 0.00 | 0.00 | 39 | 1231.9 |
| 20260504171311 | 55 | 36 | 15.0 | 20.0 | 0.00 | 0.00 | 0.00 | 39 | 1231.9 |
| 20260504170311 | 54 | 26 | 14.0 | 19.0 | 0.00 | 0.00 | 0.00 | 40 | 1231.9 |
| 20260504160307 | 53 | 4 | 11.0 | 16.0 | 0.00 | 0.00 | 0.00 | 42 | 1231.9 |
| 20260504150304 | 49 | 28 | 13.0 | 17.0 | 0.00 | 0.00 | 0.00 | 45 | 1231.9 |
| 20260504141301 | 47 | 30 | 11.0 | 18.0 | 0.00 | 0.00 | 0.00 | 46 | 1231.9 |
| 20260504140301 | 46 | 39 | 12.0 | 16.0 | 0.00 | 0.00 | 0.00 | 47 | 1231.9 |
| 20260504130257 | 44 | 40 | 9.0 | 12.0 | 0.00 | 0.00 | 0.00 | 51 | 1231.9 |
| 20260504120254 | 40 | 45 | 5.0 | 8.0 | 0.00 | 0.00 | 0.00 | 51 | 1231.9 |
| 20260504110250 | 36 | 0 | 0.0 | 0.0 | 0.00 | 0.00 | 0.00 | 51 | 1231.9 |
| 20260504100246 | 36 | 0 | 0.0 | 0.0 | 0.00 | 0.00 | 0.00 | 49 | 1231.9 |
| 20260504081239 | 44 | 129 | 0.0 | 4.0 | 0.00 | 0.00 | 0.00 | 33 | 1231.9 |
| 20260504080239 | 44 | 0 | 0.0 | 0.0 | 0.00 | 0.00 | 0.00 | 32 | 1231.9 |
| 20260504070235 | 49 | 148 | 4.0 | 5.0 | 0.00 | 0.00 | 0.00 | 31 | 1231.9 |
| 20260504060232 | 48 | 144 | 2.0 | 5.0 | 0.00 | 0.00 | 0.00 | 30 | 1231.9 |
| 20260504050228 | 49 | 114 | 2.0 | 4.0 | 0.00 | 0.00 | 0.00 | 28 | 1231.9 |
| 20260504045228 | 50 | 94 | 4.0 | 6.0 | 0.00 | 0.00 | 0.00 | 27 | 1231.9 |
| 20260504044227 | 51 | 124 | 4.0 | 5.0 | 0.00 | 0.00 | 0.00 | 27 | 1231.9 |
| 20260504043226 | 51 | 77 | 3.0 | 5.0 | 0.00 | 0.00 | 0.00 | 26 | 1231.9 |